GW5292 Weather Reports


time (UTC)temp
F
wind
direction
speed
knots
gust
knots
rain 1hr
in
rain 24hr
in
rain mn
in
humidity
%
barometer
mb
20260505191511 80 184 6.1 12.2 0.00 0.00 0.00 38 1007.8
20260505190012 81 221 6.1 10.4 0.00 0.00 0.00 39 1007.7
20260505184520 81 220 6.1 13.0 0.00 0.00 0.00 39 1007.9
20260505183011 81 221 5.2 9.6 0.00 0.00 0.00 37 1008.1
20260505181504 81 190 5.2 12.2 0.00 0.00 0.00 35 1008.3
20260505180018 80 240 5.2 9.6 0.00 0.00 0.00 36 1008.3
20260505174527 80 205 6.1 12.2 0.00 0.00 0.00 35 1008.7
20260505173022 80 210 7.0 10.4 0.00 0.00 0.00 36 1008.7
20260505171506 80 231 6.1 10.4 0.00 0.00 0.00 36 1008.8
20260505170017 79 213 6.1 9.6 0.00 0.00 0.00 39 1009.0
20260505164511 79 211 5.2 12.2 0.00 0.00 0.00 41 1009.1
20260505163021 79 199 4.3 12.2 0.00 0.00 0.00 43 1009.5
20260505161524 79 203 4.3 8.7 0.00 0.00 0.00 46 1009.4
20260505153021 77 250 4.3 6.1 0.00 0.00 0.00 47 1009.6
20260505151520 76 179 2.6 6.1 0.00 0.00 0.00 48 1009.8
20260505124505 66 179 2.6 5.2 0.00 0.00 0.00 63 1011.0
20260505123009 64 198 1.7 4.3 0.00 0.00 0.00 65 1010.9
20260505121517 62 201 1.7 2.6 0.00 0.00 0.00 72 1010.8
20260505120003 57 194 0.0 1.7 0.00 0.00 0.00 88 1010.6
20260505114504 55 342 0.0 0.0 0.00 0.00 0.00 92 1010.7
20260505113016 53 342 0.0 1.7 0.00 0.00 0.00 92 1010.7
20260505111514 52 348 0.0 0.9 0.00 0.00 0.00 92 1010.6
20260505101517 50 348 0.0 1.7 0.00 0.00 0.00 90 1010.0
20260505100021 51 348 0.0 0.0 0.00 0.00 0.00 89 1010.0
20260505094527 52 348 0.0 1.7 0.00 0.00 0.00 89 1009.8
20260505093006 52 348 0.0 0.0 0.00 0.00 0.00 88 1009.8
20260505091508 53 348 0.0 0.0 0.00 0.00 0.00 87 1009.8
20260505090016 53 348 0.0 0.0 0.00 0.00 0.00 86 1009.8
20260505084520 55 348 0.0 0.0 0.00 0.00 0.00 83 1009.9
20260505083028 56 321 0.0 0.0 0.00 0.00 0.00 81 1009.7
20260505081510 58 321 0.0 0.0 0.00 0.00 0.00 77 1009.7
20260505080013 58 321 0.0 0.0 0.00 0.00 0.00 73 1009.6
20260505074520 57 321 0.0 1.7 0.00 0.00 0.00 73 1009.3
20260505073027 56 322 0.0 1.7 0.00 0.00 0.00 74 1009.3
20260505071525 56 322 0.0 1.7 0.00 0.00 0.00 74 1009.4
20260505070010 55 321 0.0 1.7 0.00 0.00 0.00 74 1009.8
20260505064513 56 330 0.0 1.7 0.00 0.00 0.00 72 1009.7
20260505063025 56 330 0.0 1.7 0.00 0.00 0.00 72 1009.7
20260505061523 57 257 0.0 1.7 0.00 0.00 0.00 70 1009.7
20260505060020 57 257 0.0 1.7 0.00 0.00 0.00 67 1009.8
20260505054506 58 226 0.0 0.9 0.00 0.00 0.00 65 1009.6
20260505053002 59 226 0.0 1.7 0.00 0.00 0.00 63 1009.7
20260505051503 60 17 0.0 1.7 0.00 0.00 0.00 61 1009.5
20260505041503 60 265 0.0 1.7 0.00 0.00 0.00 59 1009.5
20260505040006 61 339 0.0 3.5 0.00 0.00 0.00 56 1009.4
20260505034507 61 333 0.0 1.7 0.00 0.00 0.00 56 1009.2
20260505033017 61 346 0.0 1.7 0.00 0.00 0.00 53 1009.2
20260505031510 63 166 0.0 2.6 0.00 0.00 0.00 51 1009.2
20260505030004 64 336 0.0 1.7 0.00 0.00 0.00 47 1009.2
20260505024505 65 144 0.0 2.6 0.00 0.00 0.00 46 1009.2
20260505023011 66 210 2.6 6.1 0.00 0.00 0.00 44 1009.2
20260505021515 67 212 3.5 7.0 0.00 0.00 0.00 43 1009.4
20260505020014 67 155 4.3 8.7 0.00 0.00 0.00 43 1009.4
20260505014508 67 196 4.3 8.7 0.00 0.00 0.00 42 1009.4
20260505013009 67 196 5.2 13.0 0.00 0.00 0.00 42 1009.4
20260505011519 66 205 3.5 7.8 0.00 0.00 0.00 44 1009.2
20260505010015 66 194 3.5 7.8 0.00 0.00 0.00 45 1009.2
20260505004535 66 202 2.6 4.3 0.00 0.00 0.00 45 1009.1
20260505003005 67 192 1.7 4.3 0.00 0.00 0.00 44 1008.9
20260505001512 67 197 2.6 6.1 0.00 0.00 0.00 43 1008.9
20260505000018 68 205 2.6 7.0 0.00 0.00 0.00 42 1008.7
20260504234527 69 184 1.7 5.2 0.00 0.00 0.00 40 1008.7
20260504233018 69 173 4.3 7.0 0.00 0.00 0.00 40 1008.5
20260504231519 69 171 4.3 7.8 0.00 0.00 0.00 40 1008.5
20260504230012 70 193 5.2 12.2 0.00 0.00 0.00 39 1008.3
20260504224517 71 205 4.3 7.8 0.00 0.00 0.00 39 1008.2
20260504223019 72 205 4.3 8.7 0.00 0.00 0.00 35 1008.0
20260504221518 72 199 4.3 7.8 0.00 0.00 0.00 37 1008.2
20260504220008 72 209 3.5 9.6 0.00 0.00 0.00 37 1008.3
20260504214518 72 184 3.5 6.1 0.00 0.00 0.00 36 1008.3
20260504213023 72 190 4.3 6.1 0.00 0.00 0.00 38 1008.3
20260504211521 72 190 5.2 10.4 0.00 0.00 0.00 36 1008.3
20260504210022 73 190 2.6 6.1 0.00 0.00 0.00 37 1008.7
20260504204519 72 205 3.5 10.4 0.00 0.00 0.00 37 1008.7
20260504203002 72 186 5.2 9.6 0.00 0.00 0.00 37 1008.8
20260504201503 71 352 2.6 12.2 0.00 0.00 0.00 37 1009.0
20260504200010 72 186 5.2 10.4 0.00 0.00 0.00 36 1009.2
20260504194511 72 203 3.5 9.6 0.00 0.00 0.00 38 1009.3
20260504193022 71 200 4.3 8.7 0.00 0.00 0.00 39 1009.5